Wetterdaten: Mittwoch, 11.02.2004
Datum Zeit Temp. A Sch. Temp. A Son. Feuchte A. Luftdruck Regen Wind Richtung Richtung Sonnenschein Helligkeit Taupunkt Windchill
11.02.2004 00:00 0,2 C 0,7 C 92 % 1018 hPa 0,0 l/m 2,3 m/s (1 Bft) W-SW22.5 245 0,00 min 0 lux -0,9 C -1,7 C
11.02.2004 00:05 0,1 C 0,7 C 92 % 1018 hPa 0,0 l/m 2,6 m/s (1 Bft) W-SW22.5 245 0,00 min 0 lux -1,0 C -2,8 C
11.02.2004 00:10 0,2 C 0,7 C 92 % 1018 hPa 0,0 l/m 2,8 m/s (1 Bft) W-SW22.5 245 0,00 min 0 lux -0,9 C -3,3 C
11.02.2004 00:15 0,2 C 0,7 C 92 % 1018 hPa 0,0 l/m 3,1 m/s (1 Bft) W-SW22.5 250 0,00 min 0 lux -0,9 C -4,3 C
11.02.2004 00:20 0,2 C 0,7 C 92 % 1018 hPa 0,0 l/m 3,2 m/s (1 Bft) W-SW22.5 245 0,00 min 0 lux -0,9 C -4,3 C
11.02.2004 00:25 0,2 C 0,7 C 92 % 1018 hPa 0,0 l/m 2,9 m/s (1 Bft) W-SW22.5 245 0,00 min 0 lux -0,9 C -3,6 C
11.02.2004 00:30 0,2 C 0,7 C 92 % 1018 hPa 0,0 l/m 2,5 m/s (1 Bft) W-SW22.5 250 0,00 min 0 lux -0,9 C -2,3 C
11.02.2004 00:35 0,2 C 0,7 C 92 % 1018 hPa 0,0 l/m 2,7 m/s (1 Bft) W-SW22.5 245 0,00 min 0 lux -0,9 C -2,9 C
11.02.2004 00:40 0,2 C 0,7 C 92 % 1017 hPa 0,0 l/m 2,6 m/s (1 Bft) W-SW22.5 245 0,00 min 0 lux -0,9 C -2,8 C
11.02.2004 00:45 0,3 C 0,7 C 92 % 1017 hPa 0,0 l/m 2,1 m/s (1 Bft) W-SW22.5 250 0,00 min 0 lux -0,8 C -0,8 C
11.02.2004 00:50 0,3 C 0,8 C 92 % 1017 hPa 0,0 l/m 2,0 m/s (1 Bft) W-SW22.5 250 0,00 min 0 lux -0,8 C -0,5 C
11.02.2004 00:55 0,3 C 0,8 C 92 % 1017 hPa 0,0 l/m 1,8 m/s (1 Bft) W-SW 250 0,00 min 0 lux -0,8 C 0,3 C
11.02.2004 01:00 0,3 C 0,8 C 92 % 1017 hPa 0,0 l/m 2,1 m/s (1 Bft) W-SW45 240 0,00 min 0 lux -0,8 C -0,9 C
11.02.2004 01:05 0,3 C 0,8 C 92 % 1017 hPa 0,0 l/m 1,4 m/s (1 Bft) W-SW22.5 255 0,00 min 0 lux -0,8 C 0,3 C
11.02.2004 01:10 0,3 C 0,8 C 92 % 1017 hPa 0,0 l/m 1,4 m/s (1 Bft) W-SW 245 0,00 min 0 lux -0,8 C 0,3 C
11.02.2004 01:15 0,3 C 0,8 C 92 % 1017 hPa 0,0 l/m 1,6 m/s (1 Bft) W-SW 240 0,00 min 0 lux -0,8 C 0,3 C
11.02.2004 01:20 0,4 C 0,8 C 92 % 1017 hPa 0,0 l/m 1,8 m/s (1 Bft) W-SW22.5 250 0,00 min 0 lux -0,7 C 0,4 C
11.02.2004 01:25 0,5 C 0,8 C 92 % 1017 hPa 0,0 l/m 2,2 m/s (1 Bft) W-SW45 255 0,00 min 0 lux -0,6 C -0,9 C
11.02.2004 01:30 0,5 C 0,9 C 92 % 1017 hPa 0,0 l/m 3,5 m/s (1 Bft) W22.5 260 0,00 min 0 lux -0,6 C -4,8 C
11.02.2004 01:35 0,6 C 0,9 C 92 % 1017 hPa 0,0 l/m 2,9 m/s (1 Bft) W-SW22.5 250 0,00 min 0 lux -0,5 C -3,3 C
11.02.2004 01:40 0,7 C 1,0 C 92 % 1017 hPa 0,0 l/m 3,1 m/s (1 Bft) W-SW22.5 245 0,00 min 0 lux -0,4 C -3,7 C
11.02.2004 01:45 0,7 C 1,0 C 92 % 1017 hPa 0,0 l/m 4,0 m/s (1 Bft) W-SW22.5 245 0,00 min 0 lux -0,4 C -5,8 C
11.02.2004 01:50 0,8 C 1,0 C 92 % 1016 hPa 0,0 l/m 4,1 m/s (1 Bft) W22.5 260 0,00 min 0 lux -0,3 C -5,9 C
11.02.2004 01:55 0,8 C 1,1 C 91 % 1016 hPa 0,0 l/m 2,7 m/s (1 Bft) W22.5 260 0,00 min 0 lux -0,5 C -2,2 C
11.02.2004 02:00 1,0 C 1,2 C 90 % 1016 hPa 0,0 l/m 3,8 m/s (1 Bft) W-SW22.5 255 0,00 min 0 lux -0,5 C -4,9 C
11.02.2004 02:05 1,0 C 1,2 C 90 % 1016 hPa 0,0 l/m 0,4 m/s (0 Bft) W-SW22.5 255 0,00 min 0 lux -0,5 C 1,0 C
11.02.2004 02:10 1,1 C 1,2 C 90 % 1016 hPa 0,0 l/m 0,0 m/s (0 Bft) W22.5 260 0,00 min 0 lux -0,4 C 1,1 C
11.02.2004 02:15 1,2 C 1,3 C 90 % 1016 hPa 0,0 l/m 0,5 m/s (0 Bft) W-SW45 255 0,00 min 0 lux -0,3 C 1,2 C
11.02.2004 02:20 1,2 C 1,4 C 90 % 1016 hPa 0,0 l/m 5,4 m/s (1 Bft) W67.5 265 0,00 min 0 lux -0,3 C -7,9 C
11.02.2004 02:25 1,3 C 1,4 C 90 % 1016 hPa 0,0 l/m 8,0 m/s (2 Bft) W22.5 265 0,00 min 0 lux -0,2 C -11,2 C
11.02.2004 02:30 1,4 C 1,5 C 89 % 1016 hPa 0,0 l/m 5,0 m/s (1 Bft) W22.5 260 0,00 min 0 lux -0,2 C -6,9 C
11.02.2004 02:35 1,4 C 1,5 C 89 % 1016 hPa 0,0 l/m 6,3 m/s (2 Bft) W45 270 0,00 min 0 lux -0,2 C -9,0 C
11.02.2004 02:40 1,5 C 1,6 C 89 % 1016 hPa 0,0 l/m 7,6 m/s (2 Bft) W45 260 0,00 min 0 lux -0,1 C -10,5 C
11.02.2004 02:45 1,7 C 1,7 C 89 % 1016 hPa 0,4 l/m 8,4 m/s (2 Bft) W-SW22.5 255 0,00 min 0 lux 0,1 C -11,1 C
11.02.2004 02:50 1,6 C 1,7 C 88 % 1016 hPa 0,0 l/m 7,0 m/s (2 Bft) W-SW22.5 255 0,00 min 0 lux -0,2 C -9,6 C
11.02.2004 02:55 1,7 C 1,7 C 88 % 1016 hPa 0,0 l/m 8,7 m/s (2 Bft) W-SW22.5 255 0,00 min 0 lux -0,1 C -11,4 C
11.02.2004 03:00 1,8 C 1,8 C 88 % 1015 hPa 0,4 l/m 7,5 m/s (2 Bft) W45 265 0,00 min 0 lux 0,0 C -10,0 C
11.02.2004 03:05 1,8 C 1,9 C 88 % 1015 hPa 0,4 l/m 7,5 m/s (2 Bft) W45 265 0,00 min 0 lux 0,0 C -10,0 C
11.02.2004 03:10 2,0 C 1,9 C 88 % 1015 hPa 0,0 l/m 9,5 m/s (2 Bft) W45 260 0,00 min 0 lux 0,2 C -11,7 C
11.02.2004 03:15 2,0 C 1,9 C 88 % 1015 hPa 0,4 l/m 7,3 m/s (2 Bft) W-SW45 255 0,00 min 0 lux 0,2 C -9,5 C
11.02.2004 03:20 2,1 C 2,1 C 88 % 1015 hPa 0,4 l/m 7,5 m/s (2 Bft) W22.5 260 0,00 min 0 lux 0,3 C -9,5 C
11.02.2004 03:25 2,0 C 2,1 C 88 % 1015 hPa 0,4 l/m 6,2 m/s (2 Bft) W45 270 0,00 min 0 lux 0,2 C -8,0 C
11.02.2004 03:30 2,2 C 2,1 C 88 % 1015 hPa 0,0 l/m 7,0 m/s (2 Bft) W22.5 260 0,00 min 0 lux 0,4 C -8,8 C
11.02.2004 03:35 2,1 C 2,2 C 89 % 1015 hPa 0,4 l/m 6,2 m/s (2 Bft) W45 260 0,00 min 0 lux 0,5 C -7,8 C
11.02.2004 03:40 2,2 C 2,2 C 88 % 1015 hPa 0,4 l/m 6,7 m/s (2 Bft) W67.5 260 0,00 min 0 lux 0,4 C -8,4 C
11.02.2004 03:45 2,3 C 2,2 C 89 % 1015 hPa 0,7 l/m 6,8 m/s (2 Bft) W45 260 0,00 min 0 lux 0,7 C -8,4 C
11.02.2004 03:50 2,3 C 2,3 C 89 % 1015 hPa 0,4 l/m 6,0 m/s (2 Bft) W-SW22.5 245 0,00 min 0 lux 0,7 C -7,3 C
11.02.2004 03:55 2,3 C 2,3 C 89 % 1015 hPa 0,4 l/m 4,4 m/s (1 Bft) W22.5 260 0,00 min 0 lux 0,7 C -4,6 C
11.02.2004 04:00 2,4 C 2,4 C 89 % 1015 hPa 0,4 l/m 6,5 m/s (2 Bft) W-SW22.5 250 0,00 min 0 lux 0,8 C -7,9 C
11.02.2004 04:05 2,5 C 2,4 C 89 % 1015 hPa 0,7 l/m 6,3 m/s (2 Bft) W-SW22.5 255 0,00 min 0 lux 0,9 C -7,5 C
11.02.2004 04:10 2,5 C 2,5 C 90 % 1015 hPa 0,7 l/m 8,1 m/s (2 Bft) W-SW67.5 245 0,00 min 0 lux 1,0 C -9,6 C
11.02.2004 04:15 2,6 C 2,6 C 90 % 1015 hPa 0,4 l/m 6,7 m/s (2 Bft) W-SW22.5 245 0,00 min 0 lux 1,1 C -7,9 C
11.02.2004 04:20 2,5 C 2,6 C 90 % 1015 hPa 0,4 l/m 7,4 m/s (2 Bft) W45 260 0,00 min 0 lux 1,0 C -8,8 C
11.02.2004 04:25 2,6 C 2,6 C 90 % 1015 hPa 0,7 l/m 6,6 m/s (2 Bft) W-SW45 250 0,00 min 0 lux 1,1 C -7,8 C
11.02.2004 04:30 2,7 C 2,7 C 90 % 1015 hPa 0,4 l/m 8,4 m/s (2 Bft) W-SW22.5 255 0,00 min 0 lux 1,2 C -9,7 C
11.02.2004 04:35 2,6 C 2,7 C 90 % 1015 hPa 0,4 l/m 5,8 m/s (2 Bft) W-SW45 255 0,00 min 0 lux 1,1 C -6,6 C
11.02.2004 04:40 2,7 C 2,7 C 90 % 1015 hPa 0,4 l/m 5,9 m/s (2 Bft) W-SW22.5 245 0,00 min 0 lux 1,2 C -6,7 C
11.02.2004 04:45 2,7 C 2,8 C 91 % 1015 hPa 0,4 l/m 7,7 m/s (2 Bft) W-SW22.5 250 0,00 min 0 lux 1,4 C -8,9 C
11.02.2004 04:50 2,8 C 2,8 C 91 % 1015 hPa 0,7 l/m 8,3 m/s (2 Bft) W-SW22.5 250 0,00 min 0 lux 1,5 C -9,4 C
11.02.2004 04:55 2,8 C 2,8 C 91 % 1015 hPa 0,4 l/m 7,6 m/s (2 Bft) W-SW45 250 0,00 min 0 lux 1,5 C -8,7 C
11.02.2004 05:00 2,8 C 2,9 C 91 % 1015 hPa 0,4 l/m 5,5 m/s (1 Bft) W-SW67.5 250 0,00 min 0 lux 1,5 C -5,9 C
11.02.2004 05:05 2,9 C 2,8 C 91 % 1015 hPa 0,4 l/m 5,8 m/s (1 Bft) W-SW67.5 250 0,00 min 0 lux 1,6 C -6,2 C
11.02.2004 05:10 2,9 C 2,9 C 92 % 1015 hPa 0,0 l/m 4,9 m/s (1 Bft) W-SW45 250 0,00 min 0 lux 1,7 C -4,8 C
11.02.2004 05:15 2,9 C 2,9 C 92 % 1016 hPa 0,4 l/m 2,4 m/s (1 Bft) W-NW67.5 285 0,00 min 0 lux 1,7 C 1,0 C
11.02.2004 05:20 2,8 C 3,0 C 91 % 1016 hPa 0,0 l/m 0,6 m/s (0 Bft) W45 270 0,00 min 0 lux 1,5 C 2,8 C
11.02.2004 05:25 2,7 C 3,0 C 91 % 1016 hPa 0,4 l/m 1,2 m/s (1 Bft) SW22.5 225 0,00 min 0 lux 1,4 C 2,7 C
11.02.2004 05:30 2,8 C 3,0 C 92 % 1016 hPa 0,0 l/m 1,3 m/s (1 Bft) SW22.5 235 0,00 min 0 lux 1,6 C 2,8 C
11.02.2004 05:35 2,8 C 3,0 C 92 % 1016 hPa 0,4 l/m 2,2 m/s (1 Bft) W22.5 265 0,00 min 0 lux 1,6 C 1,4 C
11.02.2004 05:40 2,8 C 3,0 C 92 % 1016 hPa 0,0 l/m 1,8 m/s (1 Bft) W-SW22.5 250 0,00 min 0 lux 1,6 C 2,8 C
11.02.2004 05:45 2,9 C 3,0 C 92 % 1016 hPa 0,0 l/m 3,1 m/s (1 Bft) W-SW22.5 255 0,00 min 0 lux 1,7 C -1,0 C
11.02.2004 05:50 3,0 C 3,0 C 92 % 1016 hPa 0,4 l/m 3,2 m/s (1 Bft) W-SW45 255 0,00 min 0 lux 1,8 C -1,2 C
11.02.2004 05:55 3,1 C 3,1 C 92 % 1016 hPa 0,0 l/m 3,4 m/s (1 Bft) W-SW22.5 250 0,00 min 0 lux 1,9 C -1,5 C
11.02.2004 06:00 3,2 C 3,1 C 92 % 1016 hPa 0,4 l/m 4,4 m/s (1 Bft) W-SW22.5 250 0,00 min 0 lux 2,0 C -3,6 C
11.02.2004 06:05 3,2 C 3,2 C 92 % 1016 hPa 0,0 l/m 4,1 m/s (1 Bft) W-SW22.5 250 0,00 min 0 lux 2,0 C -2,9 C
11.02.2004 06:10 3,3 C 3,2 C 92 % 1016 hPa 0,4 l/m 4,3 m/s (1 Bft) W-SW45 255 0,00 min 0 lux 2,1 C -3,2 C
11.02.2004 06:15 3,3 C 3,3 C 92 % 1016 hPa 0,0 l/m 5,6 m/s (1 Bft) W-SW45 255 0,00 min 0 lux 2,1 C -5,5 C
11.02.2004 06:20 3,3 C 3,3 C 92 % 1016 hPa 0,4 l/m 3,3 m/s (1 Bft) W-SW22.5 245 0,00 min 0 lux 2,1 C -1,1 C
11.02.2004 06:25 3,3 C 3,3 C 92 % 1016 hPa 0,0 l/m 2,2 m/s (1 Bft) W-SW22.5 250 0,00 min 0 lux 2,1 C 1,9 C
11.02.2004 06:30 3,3 C 3,4 C 92 % 1016 hPa 0,4 l/m 1,9 m/s (1 Bft) SW 230 0,00 min 0 lux 2,1 C 2,9 C
11.02.2004 06:35 3,4 C 3,4 C 92 % 1016 hPa 0,0 l/m 3,4 m/s (1 Bft) W-SW22.5 245 0,00 min 0 lux 2,2 C -1,2 C
11.02.2004 06:40 3,4 C 3,4 C 92 % 1016 hPa 0,0 l/m 2,0 m/s (1 Bft) SW22.5 235 0,00 min 0 lux 2,2 C 2,6 C
11.02.2004 06:45 3,3 C 3,4 C 92 % 1016 hPa 0,4 l/m 1,0 m/s (0 Bft) W-SW22.5 245 0,00 min 0 lux 2,1 C 3,3 C
11.02.2004 06:50 3,2 C 3,4 C 92 % 1016 hPa 0,0 l/m 0,3 m/s (0 Bft) W-SW 240 0,00 min 0 lux 2,0 C 3,2 C
11.02.2004 06:55 3,3 C 3,4 C 92 % 1017 hPa 0,0 l/m 1,4 m/s (1 Bft) SW 230 0,00 min 0 lux 2,1 C 3,3 C
11.02.2004 07:00 3,1 C 3,5 C 92 % 1017 hPa 0,0 l/m 0,2 m/s (0 Bft) W22.5 280 0,00 min 0 lux 1,9 C 3,1 C
11.02.2004 07:05 3,1 C 3,4 C 92 % 1017 hPa 0,0 l/m 0,1 m/s (0 Bft) W-SW 255 0,00 min 0 lux 1,9 C 3,1 C
11.02.2004 07:10 2,9 C 3,4 C 92 % 1017 hPa 0,4 l/m 0,1 m/s (0 Bft) W-NW 300 0,00 min 0 lux 1,7 C 2,9 C
11.02.2004 07:15 3,1 C 3,4 C 92 % 1017 hPa 0,0 l/m 1,0 m/s (0 Bft) W-NW 300 0,00 min 0 lux 1,9 C 3,1 C
11.02.2004 07:20 3,2 C 3,5 C 92 % 1017 hPa 0,0 l/m 1,2 m/s (1 Bft) W45 270 0,00 min 0 lux 2,0 C 3,2 C
11.02.2004 07:25 3,4 C 3,5 C 92 % 1017 hPa 0,0 l/m 1,4 m/s (1 Bft) W22.5 265 0,00 min 0 lux 2,2 C 3,4 C
11.02.2004 07:30 3,5 C 3,5 C 93 % 1017 hPa 0,0 l/m 2,7 m/s (1 Bft) W-SW22.5 255 0,00 min 42 lux 2,5 C 0,7 C
11.02.2004 07:35 3,6 C 3,6 C 93 % 1017 hPa 0,4 l/m 2,7 m/s (1 Bft) W-SW22.5 250 0,00 min 74 lux 2,6 C 0,8 C
11.02.2004 07:40 3,5 C 3,6 C 93 % 1017 hPa 0,0 l/m 2,0 m/s (1 Bft) W-SW22.5 240 0,00 min 147 lux 2,5 C 2,8 C
11.02.2004 07:45 3,6 C 3,6 C 93 % 1017 hPa 0,0 l/m 2,4 m/s (1 Bft) W-SW22.5 240 0,00 min 185 lux 2,6 C 1,7 C
11.02.2004 07:50 3,5 C 3,7 C 93 % 1017 hPa 0,4 l/m 1,6 m/s (1 Bft) W-SW22.5 240 0,00 min 297 lux 2,5 C 3,5 C
11.02.2004 07:55 3,5 C 3,7 C 93 % 1017 hPa 0,0 l/m 1,8 m/s (1 Bft) W-SW22.5 240 0,00 min 435 lux 2,5 C 3,5 C
11.02.2004 08:00 3,6 C 3,7 C 93 % 1017 hPa 0,0 l/m 1,6 m/s (1 Bft) W-SW22.5 245 0,00 min 734 lux 2,6 C 3,6 C
11.02.2004 08:05 3,4 C 3,7 C 93 % 1018 hPa 0,4 l/m 1,0 m/s (0 Bft) W22.5 260 0,00 min 1,07 klux 2,4 C 3,4 C
11.02.2004 08:10 3,4 C 3,6 C 93 % 1018 hPa 0,0 l/m 1,8 m/s (1 Bft) W-SW 240 0,00 min 1,20 klux 2,4 C 3,3 C
11.02.2004 08:15 3,2 C 3,6 C 93 % 1018 hPa 0,0 l/m 0,7 m/s (0 Bft) W-SW 245 0,00 min 1,35 klux 2,2 C 3,2 C
11.02.2004 08:20 3,2 C 3,5 C 93 % 1018 hPa 0,0 l/m 0,0 m/s (0 Bft) W-SW 245 0,00 min 1,87 klux 2,2 C 3,2 C
11.02.2004 08:25 3,0 C 3,5 C 93 % 1018 hPa 0,0 l/m 0,0 m/s (0 Bft) W-SW 245 0,00 min 2,29 klux 2,0 C 3,0 C
11.02.2004 08:30 2,8 C 3,5 C 94 % 1018 hPa 0,0 l/m 0,0 m/s (0 Bft) W-SW 245 0,00 min 3,58 klux 1,9 C 2,8 C
11.02.2004 08:35 3,0 C 3,5 C 93 % 1018 hPa 0,0 l/m 0,9 m/s (0 Bft) W-SW 245 0,00 min 4,24 klux 2,0 C 3,0 C
11.02.2004 08:40 3,2 C 3,6 C 94 % 1018 hPa 0,0 l/m 0,3 m/s (0 Bft) W-SW 245 0,00 min 6,42 klux 2,3 C 3,2 C
11.02.2004 08:45 3,6 C 3,6 C 94 % 1018 hPa 0,4 l/m 0,0 m/s (0 Bft) W-SW 245 0,00 min 5,53 klux 2,7 C 3,6 C
11.02.2004 08:50 3,7 C 3,7 C 94 % 1018 hPa 0,0 l/m 0,0 m/s (0 Bft) W-SW 245 0,00 min 5,63 klux 2,8 C 3,7 C
11.02.2004 08:55 3,9 C 3,8 C 94 % 1018 hPa 0,0 l/m 0,0 m/s (0 Bft) W-SW 245 0,00 min 7,55 klux 3,0 C 3,9 C
11.02.2004 09:00 4,0 C 3,9 C 94 % 1018 hPa 0,0 l/m 0,0 m/s (0 Bft) W-SW 245 0,00 min 4,65 klux 3,1 C 4,0 C
11.02.2004 09:05 3,7 C 3,9 C 94 % 1018 hPa 0,0 l/m 0,0 m/s (0 Bft) W-SW 245 0,00 min 6,02 klux 2,8 C 3,7 C
11.02.2004 09:10 3,8 C 3,9 C 94 % 1019 hPa 0,0 l/m 0,0 m/s (0 Bft) W-SW 245 0,00 min 7,82 klux 2,9 C 3,8 C
11.02.2004 09:15 4,0 C 3,9 C 94 % 1019 hPa 0,4 l/m 0,1 m/s (0 Bft) W-SW 245 0,00 min 9,5 klux 3,1 C 4,0 C
11.02.2004 09:20 4,4 C 4,1 C 94 % 1019 hPa 0,0 l/m 1,6 m/s (1 Bft) W 270 0,00 min 11,4 klux 3,5 C 4,4 C
11.02.2004 09:25 4,2 C 4,2 C 94 % 1019 hPa 0,0 l/m 2,4 m/s (1 Bft) W22.5 275 0,00 min 12,3 klux 3,3 C 2,1 C
11.02.2004 09:30 4,2 C 4,3 C 94 % 1019 hPa 0,0 l/m 1,2 m/s (1 Bft) W22.5 270 0,00 min 12,8 klux 3,3 C 4,2 C
11.02.2004 09:35 4,4 C 4,4 C 94 % 1019 hPa 0,0 l/m 1,8 m/s (1 Bft) W 280 0,00 min 15,2 klux 3,5 C 4,2 C
11.02.2004 09:40 4,5 C 4,5 C 94 % 1019 hPa 0,0 l/m 2,1 m/s (1 Bft) W22.5 275 0,00 min 15,0 klux 3,6 C 3,4 C
11.02.2004 09:45 4,5 C 4,6 C 94 % 1019 hPa 0,4 l/m 1,9 m/s (1 Bft) W22.5 275 0,00 min 16,0 klux 3,6 C 4,2 C
11.02.2004 09:50 4,6 C 4,8 C 93 % 1019 hPa 0,0 l/m 1,6 m/s (1 Bft) W22.5 275 0,00 min 16,2 klux 3,6 C 4,6 C
11.02.2004 09:55 4,7 C 5,0 C 92 % 1019 hPa 0,0 l/m 2,3 m/s (1 Bft) W-NW45 285 0,00 min 19,2 klux 3,5 C 3,1 C
11.02.2004 10:00 4,8 C 5,1 C 91 % 1019 hPa 0,4 l/m 1,4 m/s (1 Bft) W22.5 265 0,00 min 20,4 klux 3,5 C 4,8 C
11.02.2004 10:05 4,8 C 5,2 C 90 % 1020 hPa 0,0 l/m 1,6 m/s (1 Bft) W22.5 270 0,00 min 20,0 klux 3,3 C 4,8 C
11.02.2004 10:10 5,0 C 5,3 C 88 % 1020 hPa 0,0 l/m 2,0 m/s (1 Bft) W-NW22.5 295 0,00 min 19,8 klux 3,2 C 4,4 C
11.02.2004 10:15 5,0 C 5,4 C 87 % 1020 hPa 0,0 l/m 1,7 m/s (1 Bft) W22.5 265 0,00 min 20,0 klux 3,0 C 5,0 C
11.02.2004 10:20 5,0 C 5,6 C 86 % 1020 hPa 0,4 l/m 1,1 m/s (0 Bft) W22.5 260 0,00 min 23,0 klux 2,9 C 5,0 C
11.02.2004 10:25 5,1 C 5,8 C 85 % 1020 hPa 0,0 l/m 1,9 m/s (1 Bft) W-SW 255 5,00 min 25,5 klux 2,8 C 4,9 C
11.02.2004 10:30 5,2 C 6,0 C 85 % 1020 hPa 0,0 l/m 2,0 m/s (1 Bft) W 265 5,00 min 30,0 klux 2,9 C 4,5 C
11.02.2004 10:35 5,2 C 6,3 C 84 % 1020 hPa 0,0 l/m 2,0 m/s (1 Bft) W 265 5,00 min 30,8 klux 2,7 C 4,5 C
11.02.2004 10:40 5,2 C 6,5 C 84 % 1020 hPa 0,4 l/m 2,3 m/s (1 Bft) W-SW22.5 240 5,00 min 28,6 klux 2,7 C 3,6 C
11.02.2004 10:45 5,1 C 6,7 C 84 % 1020 hPa 0,0 l/m 3,0 m/s (1 Bft) W-SW45 250 5,00 min 55,7 klux 2,6 C 1,7 C
11.02.2004 10:50 5,2 C 6,8 C 84 % 1020 hPa 0,0 l/m 2,3 m/s (1 Bft) W-SW22.5 250 5,00 min 37,7 klux 2,7 C 3,6 C
11.02.2004 10:55 5,3 C 7,2 C 84 % 1020 hPa 0,0 l/m 3,9 m/s (1 Bft) W-SW22.5 250 5,00 min 53,1 klux 2,8 C -0,0 C
11.02.2004 11:00 5,3 C 7,8 C 83 % 1020 hPa 0,0 l/m 3,1 m/s (1 Bft) W67.5 275 5,00 min 44,8 klux 2,7 C 1,6 C
11.02.2004 11:05 5,5 C 7,8 C 83 % 1020 hPa 0,4 l/m 3,3 m/s (1 Bft) W-NW22.5 300 0,00 min 23,0 klux 2,8 C 1,3 C
11.02.2004 11:10 5,6 C 7,7 C 81 % 1020 hPa 0,0 l/m 4,7 m/s (1 Bft) W-NW45 295 0,00 min 24,7 klux 2,6 C -1,1 C
11.02.2004 11:15 5,4 C 7,6 C 79 % 1021 hPa 0,0 l/m 2,5 m/s (1 Bft) NW45 320 0,00 min 19,5 klux 2,1 C 3,2 C
11.02.2004 11:20 5,6 C 8,3 C 79 % 1021 hPa 0,0 l/m 1,9 m/s (1 Bft) NW22.5 305 5,00 min 59,7 klux 2,3 C 5,2 C
11.02.2004 11:25 5,9 C 8,6 C 79 % 1021 hPa 0,0 l/m 1,3 m/s (1 Bft) W-NW 285 5,00 min 33,4 klux 2,5 C 5,9 C
11.02.2004 11:30 6,2 C 8,7 C 77 % 1021 hPa 0,0 l/m 1,2 m/s (1 Bft) W 260 0,00 min 25,6 klux 2,5 C 6,2 C
11.02.2004 11:35 6,2 C 8,5 C 76 % 1021 hPa 0,0 l/m 1,9 m/s (1 Bft) W22.5 270 0,00 min 19,4 klux 2,3 C 5,7 C
11.02.2004 11:40 6,1 C 8,3 C 75 % 1021 hPa 0,0 l/m 3,4 m/s (1 Bft) W-NW45 285 0,00 min 20,7 klux 2,0 C 1,8 C
11.02.2004 11:45 6,4 C 8,0 C 75 % 1021 hPa 0,4 l/m 1,3 m/s (1 Bft) W-SW22.5 255 0,00 min 25,9 klux 2,3 C 6,4 C
11.02.2004 11:50 6,5 C 7,9 C 74 % 1021 hPa 0,0 l/m 2,8 m/s (1 Bft) NW45 315 0,00 min 21,3 klux 2,2 C 3,8 C
11.02.2004 11:55 6,4 C 7,8 C 73 % 1021 hPa 0,0 l/m 2,2 m/s (1 Bft) NW45 305 0,00 min 21,6 klux 1,9 C 5,1 C
11.02.2004 12:00 6,8 C 7,6 C 72 % 1021 hPa 0,0 l/m 3,8 m/s (1 Bft) NW45 305 0,00 min 27,8 klux 2,1 C 2,0 C
11.02.2004 12:05 6,9 C 7,6 C 71 % 1021 hPa 0,0 l/m 0,2 m/s (0 Bft) N-NW45 330 0,00 min 22,3 klux 2,0 C 6,9 C
11.02.2004 12:10 6,9 C 7,6 C 71 % 1021 hPa 0,4 l/m 1,8 m/s (1 Bft) NW45 320 0,00 min 22,2 klux 2,0 C 6,9 C
11.02.2004 12:15 7,0 C 7,6 C 70 % 1021 hPa 0,0 l/m 0,1 m/s (0 Bft) N-NW45 330 0,00 min 21,7 klux 1,9 C 7,0 C
11.02.2004 12:20 7,0 C 7,5 C 70 % 1021 hPa 0,0 l/m 0,1 m/s (0 Bft) W 280 0,00 min 25,7 klux 1,9 C 7,0 C
11.02.2004 12:25 6,6 C 7,6 C 70 % 1021 hPa 0,0 l/m 3,4 m/s (1 Bft) NW 320 0,00 min 25,6 klux 1,5 C 2,4 C
11.02.2004 12:30 6,5 C 7,6 C 71 % 1021 hPa 0,0 l/m 2,7 m/s (1 Bft) W45 280 0,00 min 30,9 klux 1,6 C 3,9 C
11.02.2004 12:35 6,4 C 7,8 C 71 % 1021 hPa 0,0 l/m 3,2 m/s (1 Bft) W-NW22.5 285 0,00 min 28,8 klux 1,5 C 2,7 C
11.02.2004 12:40 6,4 C 8,0 C 71 % 1021 hPa 0,4 l/m 3,8 m/s (1 Bft) NW67.5 310 0,00 min 31,4 klux 1,5 C 1,4 C
11.02.2004 12:45 6,7 C 8,1 C 70 % 1021 hPa 0,0 l/m 2,2 m/s (1 Bft) NW22.5 305 0,00 min 28,5 klux 1,6 C 5,5 C
11.02.2004 12:50 6,8 C 8,1 C 70 % 1021 hPa 0,0 l/m 0,6 m/s (0 Bft) W-NW67.5 300 0,00 min 30,8 klux 1,7 C 6,8 C
11.02.2004 12:55 6,8 C 8,1 C 69 % 1021 hPa 0,0 l/m 3,6 m/s (1 Bft) W-NW22.5 290 0,00 min 31,2 klux 1,5 C 2,3 C
11.02.2004 13:00 6,9 C 8,1 C 69 % 1021 hPa 0,0 l/m 3,9 m/s (1 Bft) W-NW45 285 0,00 min 28,8 klux 1,6 C 1,8 C
11.02.2004 13:05 7,1 C 8,2 C 67 % 1021 hPa 0,0 l/m 2,1 m/s (1 Bft) NW45 305 0,00 min 24,7 klux 1,4 C 6,1 C
11.02.2004 13:10 7,2 C 8,2 C 67 % 1021 hPa 0,0 l/m 1,6 m/s (1 Bft) W-NW 285 0,00 min 27,5 klux 1,5 C 7,2 C
11.02.2004 13:15 7,3 C 8,3 C 66 % 1021 hPa 0,4 l/m 0,0 m/s (0 Bft) NW45 310 0,00 min 25,0 klux 1,4 C 7,3 C
11.02.2004 13:20 7,3 C 8,3 C 65 % 1021 hPa 0,0 l/m 3,5 m/s (1 Bft) NW45 310 0,00 min 25,9 klux 1,2 C 3,1 C
11.02.2004 13:25 7,4 C 8,1 C 65 % 1021 hPa 0,0 l/m 2,3 m/s (1 Bft) NW45 315 0,00 min 24,8 klux 1,3 C 6,0 C
11.02.2004 13:30 7,5 C 8,1 C 65 % 1022 hPa 0,0 l/m 2,4 m/s (1 Bft) W-NW22.5 300 0,00 min 26,9 klux 1,4 C 5,7 C
11.02.2004 13:35 7,3 C 8,0 C 65 % 1022 hPa 0,0 l/m 2,4 m/s (1 Bft) N-NW45 330 0,00 min 21,7 klux 1,2 C 5,4 C
11.02.2004 13:40 7,3 C 7,9 C 64 % 1022 hPa 0,0 l/m 3,6 m/s (1 Bft) NW67.5 325 0,00 min 20,3 klux 1,0 C 2,9 C
11.02.2004 13:45 7,1 C 7,8 C 64 % 1022 hPa 0,0 l/m 1,8 m/s (1 Bft) NW45 305 0,00 min 22,7 klux 0,8 C 7,0 C
11.02.2004 13:50 7,3 C 7,8 C 64 % 1022 hPa 0,4 l/m 3,1 m/s (1 Bft) W-NW45 300 0,00 min 21,2 klux 1,0 C 3,9 C
11.02.2004 13:55 7,3 C 7,8 C 64 % 1022 hPa 0,0 l/m 2,9 m/s (1 Bft) NW45 320 0,00 min 27,3 klux 1,0 C 4,3 C
11.02.2004 14:00 7,3 C 7,9 C 64 % 1022 hPa 0,0 l/m 1,3 m/s (1 Bft) NW45 305 0,00 min 24,8 klux 1,0 C 7,3 C
11.02.2004 14:05 7,3 C 8,0 C 64 % 1022 hPa 0,0 l/m 0,9 m/s (0 Bft) W22.5 260 0,00 min 24,9 klux 1,0 C 7,3 C
11.02.2004 14:10 6,9 C 8,0 C 65 % 1022 hPa 0,0 l/m 3,6 m/s (1 Bft) W45 265 0,00 min 25,6 klux 0,8 C 2,5 C
11.02.2004 14:15 7,0 C 8,0 C 64 % 1022 hPa 0,0 l/m 4,3 m/s (1 Bft) W-NW22.5 285 0,00 min 23,8 klux 0,7 C 1,3 C
11.02.2004 14:20 6,9 C 8,0 C 66 % 1022 hPa 0,0 l/m 5,3 m/s (1 Bft) W-NW45 285 0,00 min 21,8 klux 1,0 C -0,3 C
11.02.2004 14:25 6,5 C 8,0 C 67 % 1022 hPa 0,0 l/m 2,8 m/s (1 Bft) W22.5 275 0,00 min 20,0 klux 0,8 C 3,7 C
11.02.2004 14:30 6,9 C 7,9 C 66 % 1022 hPa 0,0 l/m 4,3 m/s (1 Bft) NW45 310 0,00 min 25,0 klux 1,0 C 1,1 C
11.02.2004 14:35 6,9 C 8,0 C 66 % 1022 hPa 0,4 l/m 1,8 m/s (1 Bft) W-NW45 300 0,00 min 24,7 klux 1,0 C 6,8 C
11.02.2004 14:40 7,1 C 7,9 C 63 % 1022 hPa 0,0 l/m 5,1 m/s (1 Bft) NW45 310 0,00 min 21,2 klux 0,5 C 0,2 C
11.02.2004 14:45 7,1 C 7,9 C 63 % 1022 hPa 0,0 l/m 1,5 m/s (1 Bft) NW67.5 325 0,00 min 19,1 klux 0,5 C 7,1 C
11.02.2004 14:50 7,2 C 7,8 C 63 % 1022 hPa 0,0 l/m 2,9 m/s (1 Bft) N-NW45 330 0,00 min 16,9 klux 0,6 C 4,2 C
11.02.2004 14:55 7,0 C 7,7 C 63 % 1022 hPa 0,0 l/m 4,6 m/s (1 Bft) N-NW45 345 0,00 min 17,3 klux 0,4 C 0,8 C
11.02.2004 15:00 7,1 C 7,7 C 64 % 1022 hPa 0,0 l/m 0,0 m/s (0 Bft) N45 350 0,00 min 16,8 klux 0,8 C 7,1 C
11.02.2004 15:05 6,8 C 7,6 C 65 % 1022 hPa 0,0 l/m 0,7 m/s (0 Bft) N-NO67.5 30 0,00 min 15,2 klux 0,7 C 6,8 C
11.02.2004 15:10 6,9 C 7,5 C 65 % 1023 hPa 0,0 l/m 3,0 m/s (1 Bft) N22.5 355 0,00 min 15,3 klux 0,8 C 3,7 C
11.02.2004 15:15 6,7 C 7,4 C 65 % 1023 hPa 0,0 l/m 2,2 m/s (1 Bft) N45 350 0,00 min 14,3 klux 0,6 C 5,5 C
11.02.2004 15:20 6,5 C 7,4 C 66 % 1023 hPa 0,0 l/m 2,8 m/s (1 Bft) N-NW67.5 345 0,00 min 13,2 klux 0,6 C 3,8 C
11.02.2004 15:25 6,5 C 7,3 C 66 % 1023 hPa 0,0 l/m 3,1 m/s (1 Bft) N-NW45 335 0,00 min 13,2 klux 0,6 C 2,9 C
11.02.2004 15:30 6,5 C 7,2 C 66 % 1023 hPa 0,0 l/m 3,3 m/s (1 Bft) NW22.5 305 0,00 min 15,6 klux 0,6 C 2,7 C
11.02.2004 15:35 6,5 C 7,2 C 66 % 1023 hPa 0,0 l/m 2,6 m/s (1 Bft) N-NW67.5 345 0,00 min 13,8 klux 0,6 C 4,3 C
11.02.2004 15:40 6,5 C 7,1 C 66 % 1023 hPa 0,0 l/m 2,0 m/s (1 Bft) N-NW45 345 0,00 min 10,8 klux 0,6 C 5,7 C
11.02.2004 15:45 6,4 C 7,0 C 66 % 1023 hPa 0,0 l/m 3,6 m/s (1 Bft) N-NW45 335 0,00 min 11,0 klux 0,5 C 1,9 C
11.02.2004 15:50 6,1 C 6,8 C 65 % 1023 hPa 0,0 l/m 3,2 m/s (1 Bft) N-NW45 330 0,00 min 10,0 klux 0,0 C 2,3 C
11.02.2004 15:55 5,9 C 6,7 C 67 % 1023 hPa 0,0 l/m 3,2 m/s (1 Bft) N-NW45 330 0,00 min 9,2 klux 0,3 C 2,1 C
11.02.2004 16:00 6,0 C 6,7 C 66 % 1023 hPa 0,0 l/m 1,4 m/s (1 Bft) W-NW67.5 300 0,00 min 8,09 klux 0,1 C 6,0 C
11.02.2004 16:05 5,8 C 6,6 C 66 % 1023 hPa 0,0 l/m 3,0 m/s (1 Bft) N-NW67.5 345 0,00 min 8,73 klux -0,0 C 2,4 C
11.02.2004 16:10 5,8 C 6,5 C 67 % 1023 hPa 0,0 l/m 2,6 m/s (1 Bft) N-NW45 335 0,00 min 7,93 klux 0,2 C 3,5 C
11.02.2004 16:15 5,8 C 6,5 C 67 % 1023 hPa 0,0 l/m 3,1 m/s (1 Bft) W-NW45 285 0,00 min 8,11 klux 0,2 C 2,3 C
11.02.2004 16:20 5,7 C 6,4 C 68 % 1024 hPa 0,0 l/m 0,1 m/s (0 Bft) N-NW22.5 330 0,00 min 6,60 klux 0,3 C 5,7 C
11.02.2004 16:25 5,6 C 6,4 C 68 % 1024 hPa 0,0 l/m 0,0 m/s (0 Bft) NW 320 0,00 min 5,79 klux 0,2 C 5,6 C
11.02.2004 16:30 5,5 C 6,3 C 68 % 1024 hPa 0,0 l/m 1,9 m/s (1 Bft) W-NW45 300 0,00 min 5,46 klux 0,1 C 5,2 C
11.02.2004 16:35 5,2 C 6,2 C 68 % 1023 hPa 0,0 l/m 1,7 m/s (1 Bft) N-NW45 330 0,00 min 5,26 klux -0,2 C 5,2 C
11.02.2004 16:40 5,1 C 6,0 C 68 % 1023 hPa 0,0 l/m 2,0 m/s (1 Bft) N-NW45 335 0,00 min 5,10 klux -0,3 C 4,4 C
11.02.2004 16:45 5,1 C 6,0 C 69 % 1024 hPa 0,0 l/m 2,0 m/s (1 Bft) N-NW45 335 0,00 min 5,37 klux -0,1 C 4,4 C
11.02.2004 16:50 5,1 C 5,8 C 69 % 1024 hPa 0,0 l/m 2,2 m/s (1 Bft) NW22.5 310 0,00 min 5,59 klux -0,1 C 3,8 C
11.02.2004 16:55 5,1 C 5,7 C 69 % 1024 hPa 0,0 l/m 0,3 m/s (0 Bft) N-NW22.5 345 0,00 min 4,35 klux -0,1 C 5,1 C
11.02.2004 17:00 4,7 C 5,7 C 71 % 1024 hPa 0,0 l/m 0,0 m/s (0 Bft) N-NO45 15 0,00 min 3,66 klux -0,1 C 4,7 C
11.02.2004 17:05 4,5 C 5,6 C 71 % 1024 hPa 0,0 l/m 0,0 m/s (0 Bft) O-NO 70 0,00 min 3,33 klux -0,3 C 4,5 C
11.02.2004 17:10 4,1 C 5,5 C 73 % 1024 hPa 0,0 l/m 0,0 m/s (0 Bft) O-NO 70 0,00 min 1,97 klux -0,3 C 4,1 C
11.02.2004 17:15 4,0 C 5,2 C 74 % 1024 hPa 0,0 l/m 0,0 m/s (0 Bft) O-NO 70 0,00 min 1,60 klux -0,2 C 4,0 C
11.02.2004 17:20 4,0 C 5,2 C 75 % 1024 hPa 0,0 l/m 0,0 m/s (0 Bft) O-NO 70 0,00 min 1,60 klux -0,0 C 4,0 C
11.02.2004 17:25 4,0 C 5,0 C 76 % 1024 hPa 0,0 l/m 3,0 m/s (1 Bft) O-NO67.5 65 0,00 min 562 lux 0,2 C 0,3 C
11.02.2004 17:30 4,1 C 5,0 C 78 % 1024 hPa 0,0 l/m 3,8 m/s (1 Bft) O45 80 0,00 min 254 lux 0,6 C -1,2 C
11.02.2004 17:35 3,8 C 4,8 C 78 % 1024 hPa 0,0 l/m 4,6 m/s (1 Bft) O-NO45 75 0,00 min 210 lux 0,3 C -3,2 C
11.02.2004 17:40 4,0 C 4,8 C 77 % 1024 hPa 0,0 l/m 2,7 m/s (1 Bft) O45 80 0,00 min 125 lux 0,3 C 1,2 C
11.02.2004 17:45 3,9 C 4,7 C 79 % 1025 hPa 0,0 l/m 2,8 m/s (1 Bft) O-NO45 75 0,00 min 103 lux 0,6 C 0,9 C
11.02.2004 17:50 3,6 C 4,6 C 79 % 1025 hPa 0,0 l/m 1,5 m/s (1 Bft) O45 90 0,00 min 64 lux 0,3 C 3,6 C
11.02.2004 17:55 3,6 C 4,5 C 79 % 1025 hPa 0,0 l/m 0,2 m/s (0 Bft) O-NO45 75 0,00 min 34 lux 0,3 C 3,6 C
11.02.2004 18:00 3,5 C 4,4 C 79 % 1025 hPa 0,0 l/m 0,8 m/s (0 Bft) O22.5 95 0,00 min 19 lux 0,2 C 3,5 C
11.02.2004 18:05 3,1 C 4,3 C 78 % 1025 hPa 0,0 l/m 0,0 m/s (0 Bft) O 85 0,00 min 12 lux -0,4 C 3,1 C
11.02.2004 18:10 3,1 C 4,2 C 79 % 1025 hPa 0,0 l/m 0,0 m/s (0 Bft) O 85 0,00 min 6 lux -0,2 C 3,1 C
11.02.2004 18:15 3,0 C 4,2 C 79 % 1025 hPa 0,0 l/m 0,0 m/s (0 Bft) O 85 0,00 min 2 lux -0,3 C 3,0 C
11.02.2004 18:20 2,5 C 4,1 C 81 % 1025 hPa 0,0 l/m 0,0 m/s (0 Bft) O 85 0,00 min 0 lux -0,4 C 2,5 C
11.02.2004 18:25 2,7 C 4,0 C 82 % 1025 hPa 0,0 l/m 0,0 m/s (0 Bft) O 85 0,00 min 0 lux -0,1 C 2,7 C
11.02.2004 18:30 2,5 C 3,9 C 83 % 1025 hPa 0,0 l/m 0,0 m/s (0 Bft) O 85 0,00 min 0 lux -0,1 C 2,5 C
11.02.2004 18:35 2,6 C 3,8 C 84 % 1025 hPa 0,0 l/m 0,0 m/s (0 Bft) O 85 0,00 min 0 lux 0,2 C 2,6 C
11.02.2004 18:40 2,6 C 3,7 C 84 % 1026 hPa 0,0 l/m 0,0 m/s (0 Bft) O 85 0,00 min 0 lux 0,2 C 2,6 C
11.02.2004 18:45 2,5 C 3,7 C 84 % 1026 hPa 0,0 l/m 0,4 m/s (0 Bft) O-SO22.5 110 0,00 min 0 lux 0,1 C 2,5 C
11.02.2004 18:50 2,5 C 3,5 C 84 % 1026 hPa 0,0 l/m 1,2 m/s (1 Bft) O-SO22.5 110 0,00 min 0 lux 0,1 C 2,5 C
11.02.2004 18:55 2,5 C 3,4 C 84 % 1026 hPa 0,0 l/m 0,7 m/s (0 Bft) O 95 0,00 min 0 lux 0,1 C 2,5 C
11.02.2004 19:00 2,4 C 3,3 C 83 % 1026 hPa 0,0 l/m 1,8 m/s (1 Bft) O22.5 95 0,00 min 0 lux -0,2 C 2,3 C
11.02.2004 19:05 2,3 C 3,3 C 82 % 1026 hPa 0,0 l/m 0,9 m/s (0 Bft) O-NO22.5 75 0,00 min 0 lux -0,4 C 2,3 C
11.02.2004 19:10 2,3 C 3,2 C 81 % 1026 hPa 0,0 l/m 1,3 m/s (1 Bft) O 90 0,00 min 0 lux -0,6 C 2,3 C
11.02.2004 19:15 2,3 C 3,2 C 81 % 1026 hPa 0,0 l/m 1,7 m/s (1 Bft) O-SO22.5 115 0,00 min 0 lux -0,6 C 2,3 C
11.02.2004 19:20 2,3 C 3,1 C 81 % 1026 hPa 0,0 l/m 2,1 m/s (1 Bft) O22.5 100 0,00 min 0 lux -0,6 C 1,1 C
11.02.2004 19:25 2,3 C 3,0 C 80 % 1026 hPa 0,0 l/m 1,6 m/s (1 Bft) O22.5 85 0,00 min 0 lux -0,8 C 2,3 C
11.02.2004 19:30 2,3 C 2,9 C 79 % 1026 hPa 0,0 l/m 3,1 m/s (1 Bft) O22.5 90 0,00 min 0 lux -1,0 C -1,9 C
11.02.2004 19:35 2,2 C 2,9 C 79 % 1027 hPa 0,0 l/m 1,6 m/s (1 Bft) O22.5 95 0,00 min 0 lux -1,1 C 2,2 C
11.02.2004 19:40 2,1 C 2,7 C 78 % 1026 hPa 0,0 l/m 3,1 m/s (1 Bft) O22.5 95 0,00 min 0 lux -1,3 C -2,1 C
11.02.2004 19:45 2,0 C 2,6 C 78 % 1027 hPa 0,0 l/m 1,1 m/s (0 Bft) NO45 55 0,00 min 0 lux -1,4 C 2,0 C
11.02.2004 19:50 1,8 C 2,6 C 79 % 1027 hPa 0,0 l/m 2,0 m/s (1 Bft) O-NO22.5 70 0,00 min 0 lux -1,4 C 1,0 C
11.02.2004 19:55 1,6 C 2,5 C 80 % 1027 hPa 0,0 l/m 0,9 m/s (0 Bft) O-NO22.5 70 0,00 min 0 lux -1,5 C 1,6 C
11.02.2004 20:00 1,5 C 2,4 C 80 % 1027 hPa 0,0 l/m 0,1 m/s (0 Bft) O-NO 65 0,00 min 0 lux -1,6 C 1,5 C
11.02.2004 20:05 1,5 C 2,3 C 80 % 1027 hPa 0,0 l/m 0,0 m/s (0 Bft) N-NO22.5 30 0,00 min 0 lux -1,6 C 1,5 C
11.02.2004 20:10 1,4 C 2,2 C 81 % 1027 hPa 0,0 l/m 2,1 m/s (1 Bft) O-SO22.5 115 0,00 min 0 lux -1,5 C 0,2 C
11.02.2004 20:15 1,4 C 2,1 C 81 % 1027 hPa 0,0 l/m 4,2 m/s (1 Bft) O-NO67.5 75 0,00 min 0 lux -1,5 C -5,3 C
11.02.2004 20:20 1,2 C 1,9 C 80 % 1027 hPa 0,0 l/m 1,8 m/s (1 Bft) O-NO45 60 0,00 min 0 lux -1,9 C 1,2 C
11.02.2004 20:25 1,2 C 1,8 C 81 % 1027 hPa 0,0 l/m 3,6 m/s (1 Bft) NO45 45 0,00 min 0 lux -1,7 C -4,4 C
11.02.2004 20:30 1,2 C 1,7 C 80 % 1027 hPa 0,0 l/m 4,5 m/s (1 Bft) NO67.5 50 0,00 min 0 lux -1,9 C -6,1 C
11.02.2004 20:35 1,4 C 1,5 C 79 % 1027 hPa 0,0 l/m 4,3 m/s (1 Bft) N-NO22.5 25 0,00 min 0 lux -1,8 C -5,6 C
11.02.2004 20:40 1,3 C 1,5 C 78 % 1027 hPa 0,0 l/m 3,8 m/s (1 Bft) N-NO45 25 0,00 min 0 lux -2,1 C -4,5 C
11.02.2004 20:45 1,3 C 1,4 C 78 % 1027 hPa 0,0 l/m 3,5 m/s (1 Bft) N-NO45 30 0,00 min 0 lux -2,1 C -3,8 C
11.02.2004 20:50 1,3 C 1,3 C 78 % 1027 hPa 0,0 l/m 3,4 m/s (1 Bft) NO45 35 0,00 min 0 lux -2,1 C -3,6 C
11.02.2004 20:55 1,1 C 1,3 C 78 % 1027 hPa 0,0 l/m 1,9 m/s (1 Bft) N-NO22.5 20 0,00 min 0 lux -2,3 C 0,8 C
11.02.2004 21:00 1,0 C 1,2 C 79 % 1027 hPa 0,0 l/m 2,3 m/s (1 Bft) NO22.5 35 0,00 min 0 lux -2,2 C -0,9 C
11.02.2004 21:05 1,0 C 1,2 C 79 % 1027 hPa 0,0 l/m 3,1 m/s (1 Bft) O-NO45 70 0,00 min 0 lux -2,2 C -3,1 C
11.02.2004 21:10 1,0 C 1,2 C 79 % 1028 hPa 0,0 l/m 0,3 m/s (0 Bft) O22.5 80 0,00 min 0 lux -2,2 C 1,0 C
11.02.2004 21:15 1,1 C 1,3 C 79 % 1028 hPa 0,0 l/m 0,9 m/s (0 Bft) O-NO22.5 70 0,00 min 0 lux -2,1 C 1,1 C
11.02.2004 21:20 1,2 C 1,4 C 79 % 1028 hPa 0,0 l/m 1,8 m/s (1 Bft) O45 100 0,00 min 0 lux -2,0 C 1,0 C
11.02.2004 21:25 1,2 C 1,4 C 79 % 1028 hPa 0,0 l/m 1,9 m/s (1 Bft) O-NO22.5 75 0,00 min 0 lux -2,0 C 0,6 C
11.02.2004 21:30 1,1 C 1,5 C 78 % 1028 hPa 0,0 l/m 1,9 m/s (1 Bft) O22.5 95 0,00 min 0 lux -2,3 C 0,8 C
11.02.2004 21:35 1,1 C 1,5 C 78 % 1028 hPa 0,0 l/m 1,1 m/s (0 Bft) O-SO 105 0,00 min 0 lux -2,3 C 1,1 C
11.02.2004 21:40 1,1 C 1,5 C 78 % 1028 hPa 0,0 l/m 0,3 m/s (0 Bft) O-NO22.5 65 0,00 min 0 lux -2,3 C 1,1 C
11.02.2004 21:45 1,1 C 1,6 C 79 % 1028 hPa 0,0 l/m 1,5 m/s (1 Bft) O22.5 100 0,00 min 0 lux -2,1 C 1,1 C
11.02.2004 21:50 1,1 C 1,6 C 77 % 1028 hPa 0,0 l/m 3,6 m/s (1 Bft) O45 90 0,00 min 0 lux -2,5 C -4,4 C
11.02.2004 21:55 1,1 C 1,6 C 77 % 1028 hPa 0,0 l/m 4,0 m/s (1 Bft) O-NO45 75 0,00 min 0 lux -2,5 C -5,2 C
11.02.2004 22:00 1,0 C 1,6 C 77 % 1028 hPa 0,0 l/m 2,9 m/s (1 Bft) O45 100 0,00 min 0 lux -2,6 C -2,7 C
11.02.2004 22:05 0,9 C 1,6 C 78 % 1028 hPa 0,0 l/m 3,5 m/s (1 Bft) O-SO22.5 110 0,00 min 0 lux -2,5 C -4,4 C
11.02.2004 22:10 0,8 C 1,5 C 78 % 1028 hPa 0,0 l/m 3,0 m/s (1 Bft) O22.5 95 0,00 min 0 lux -2,6 C -3,2 C
11.02.2004 22:15 0,8 C 1,5 C 77 % 1028 hPa 0,0 l/m 2,9 m/s (1 Bft) O22.5 95 0,00 min 0 lux -2,8 C -3,0 C
11.02.2004 22:20 0,8 C 1,4 C 77 % 1029 hPa 0,0 l/m 2,3 m/s (1 Bft) O45 100 0,00 min 0 lux -2,8 C -1,1 C
11.02.2004 22:25 0,7 C 1,4 C 77 % 1029 hPa 0,0 l/m 2,8 m/s (1 Bft) O45 95 0,00 min 0 lux -2,9 C -2,8 C
11.02.2004 22:30 0,7 C 1,4 C 76 % 1029 hPa 0,0 l/m 4,5 m/s (1 Bft) O45 80 0,00 min 0 lux -3,0 C -6,9 C
11.02.2004 22:35 0,7 C 1,4 C 74 % 1029 hPa 0,0 l/m 1,7 m/s (1 Bft) O-NO45 70 0,00 min 0 lux -3,4 C 0,7 C
11.02.2004 22:40 0,6 C 1,4 C 73 % 1029 hPa 0,0 l/m 2,3 m/s (1 Bft) NO45 45 0,00 min 0 lux -3,7 C -1,2 C
11.02.2004 22:45 0,6 C 1,3 C 73 % 1029 hPa 0,0 l/m 2,4 m/s (1 Bft) O22.5 90 0,00 min 0 lux -3,7 C -1,5 C
11.02.2004 22:50 0,5 C 1,3 C 71 % 1029 hPa 0,0 l/m 2,7 m/s (1 Bft) O22.5 90 0,00 min 0 lux -4,1 C -2,7 C
11.02.2004 22:55 0,5 C 1,3 C 71 % 1029 hPa 0,0 l/m 0,0 m/s (0 Bft) O-NO 75 0,00 min 0 lux -4,1 C 0,5 C
11.02.2004 23:00 0,4 C 1,2 C 72 % 1029 hPa 0,0 l/m 0,0 m/s (0 Bft) O-NO 75 0,00 min 0 lux -4,0 C 0,4 C
11.02.2004 23:05 0,5 C 1,2 C 72 % 1029 hPa 0,0 l/m 0,0 m/s (0 Bft) O-NO 75 0,00 min 0 lux -3,9 C 0,5 C
11.02.2004 23:10 0,4 C 1,3 C 73 % 1029 hPa 0,0 l/m 0,0 m/s (0 Bft) O-NO 75 0,00 min 0 lux -3,9 C 0,4 C
11.02.2004 23:15 0,5 C 1,3 C 72 % 1029 hPa 0,0 l/m 0,0 m/s (0 Bft) O-NO 75 0,00 min 0 lux -3,9 C 0,5 C
11.02.2004 23:20 0,4 C 1,3 C 72 % 1029 hPa 0,0 l/m 0,0 m/s (0 Bft) O-NO 75 0,00 min 0 lux -4,0 C 0,4 C
11.02.2004 23:25 0,3 C 1,2 C 72 % 1029 hPa 0,0 l/m 0,0 m/s (0 Bft) O-NO 75 0,00 min 0 lux -4,1 C 0,3 C
11.02.2004 23:30 0,3 C 1,2 C 72 % 1029 hPa 0,0 l/m 0,0 m/s (0 Bft) O-NO 75 0,00 min 0 lux -4,1 C 0,3 C
11.02.2004 23:35 0,4 C 1,1 C 72 % 1029 hPa 0,0 l/m 0,0 m/s (0 Bft) O-NO 75 0,00 min 0 lux -4,0 C 0,4 C
11.02.2004 23:40 0,2 C 1,1 C 74 % 1029 hPa 0,0 l/m 0,0 m/s (0 Bft) O-NO 75 0,00 min 0 lux -3,9 C 0,2 C
11.02.2004 23:45 0,2 C 1,0 C 75 % 1029 hPa 0,0 l/m 0,0 m/s (0 Bft) O-NO 75 0,00 min 0 lux -3,7 C 0,2 C
11.02.2004 23:50 0,0 C 0,9 C 75 % 1029 hPa 0,0 l/m 0,0 m/s (0 Bft) O-NO 75 0,00 min 0 lux -3,9 C 0,0 C
11.02.2004 23:55 -0,2 C 0,8 C 76 % 1029 hPa 0,0 l/m 0,0 m/s (0 Bft) O-NO 75 0,00 min 0 lux -3,9 C -0,2 C
_ Min-Zeit 23:55 00:00 14:40 03:00 - 02:10 - - - - 23:25 03:10
Minimum _ -0,2 C 0,7 C 63 % 1015 hPa - 0,0 m/s (0 Bft) - - - - -4,1 C -11,7 C
_ Max-Zeit 13:30 11:30 08:30 22:20 03:45 03:10 - - 10:25 11:20 09:40 13:15
Maximum _ 7,5 C 8,7 C 94 % 1029 hPa 0,7 l/m 9,5 m/s
W (5 Bft)
- - 5,00 min 59,7 klux 3,6 C 7,3 C
Durchschnitt _ 3,3 C 3,9 C 82 % 1021 hPa #20,2 l/m 2,5 m/s (2 Bft) W-SW - #50 min. 7,05 klux 0,4 C 0,5 C